Weather History for Rome, OR

Change the Weather History Date:

Wednesday, April 23, 2014

  Actual Average Record
Temperature  
Mean Temperature 42 °F 48 °F  
Max Temperature 59 °F 63 °F 88 °F (1977)
Min Temperature 25 °F 32 °F 20 °F (2013)
Degree Days  
Heating Degree Days 23 18  
Month to date heating degree days 370 465  
Since 1 July heating degree days 5465 5980  
Cooling Degree Days 0 0  
Month to date cooling degree days 0 0  
Year to date cooling degree days 0 0  
Moisture  
Dew Point 20 °F    
Average Humidity 45    
Maximum Humidity 68    
Minimum Humidity 21    
Precipitation  
Precipitation 0.00 in 0.03 in 0.82 in (1997)
Month to date precipitation 0.30 0.73  
Year to date precipitation 1.43 3.12  
Sea Level Pressure  
Sea Level Pressure 29.98 in    
Wind  
Wind Speed 11 mph (SSW)    
Max Wind Speed 23 mph    
Max Gust Speed 31 mph    
T = Trace of Precipitation, MM = Missing Value Source: NWS Daily Summary

Daily Weather History Graph

Daily Weather History Graph

Search for Another Location

Airport:

Trip Planner

Search our weather history database for the weather conditions in past years. The results will help you decide how hot, cold, wet, or windy it might be!

Date:

Astronomy

Apr. 23, 2014 Rise Set
Actual Time 5:57 AM PDT 7:42 PM PDT
Civil Twilight 5:27 AM PDT 8:12 PM PDT
Nautical Twilight 4:51 AM PDT 8:49 PM PDT
Astronomical Twilight 4:12 AM PDT 9:28 PM PDT
Moon 2:40 AM PDT (4/23) 1:48 PM PDT (4/23)
Length of Visible Light 14h 45m
Length of Day
13h 45m
Waning Crescent, 34% of the Moon is Illuminated
Apr 23
Waning Crescent
Apr 28
New
May 6
First Quarter
May 14
Full
May 21
Last Quarter

Hourly Weather History & Observations

Time (PDT) Temp. Windchill Dew Point Humidity Pressure Visibility Wind Dir Wind Speed Gust Speed Precip Events Conditions
12:52 AM 30.9 °F 25.2 °F 19.0 °F 61% 29.99 in - SSW 5.8 mph - N/A   Unknown
1:52 AM 28.0 °F 19.3 °F 18.0 °F 66% 30.00 in - SE 9.2 mph - N/A   Unknown
2:52 AM 30.9 °F 24.3 °F 19.0 °F 61% 29.98 in - South 6.9 mph - N/A   Unknown
3:52 AM 30.9 °F 26.2 °F 19.0 °F 61% 30.00 in - SW 4.6 mph - N/A   Unknown
4:52 AM 30.0 °F - 19.0 °F 64% 30.01 in - Calm Calm - N/A   Unknown
5:52 AM 26.1 °F 19.4 °F 18.0 °F 71% 30.02 in - South 5.8 mph - N/A   Unknown
6:52 AM 35.1 °F 31.0 °F 21.0 °F 57% 30.02 in - SSW 4.6 mph - N/A   Unknown
7:52 AM 42.1 °F 34.2 °F 21.0 °F 43% 30.01 in - SW 16.1 mph - N/A   Unknown
8:52 AM 45.0 °F 37.6 °F 21.0 °F 39% 30.02 in - WSW 17.3 mph 24.2 mph N/A   Unknown
9:52 AM 48.0 °F - 19.0 °F 32% 30.02 in - SSW 11.5 mph - N/A   Unknown
10:52 AM 51.1 °F - 18.0 °F 27% 30.01 in - SW 16.1 mph 25.3 mph N/A   Unknown
11:52 AM 53.1 °F - 17.1 °F 24% 30.00 in - WSW 15.0 mph 27.6 mph N/A   Unknown
12:52 PM 55.0 °F - 18.0 °F 23% 29.99 in - WSW 17.3 mph 27.6 mph N/A   Unknown
1:52 PM 55.9 °F - 18.0 °F 23% 29.99 in - SW 17.3 mph 24.2 mph N/A   Unknown
2:52 PM 55.9 °F - 19.0 °F 24% 29.96 in - South 16.1 mph 26.5 mph N/A   Unknown
3:52 PM 55.9 °F - 18.0 °F 23% 29.94 in - SW 6.9 mph 23.0 mph N/A   Unknown
4:52 PM 59.0 °F - 19.9 °F 22% 29.93 in - West 16.1 mph 27.6 mph N/A   Unknown
5:52 PM 55.9 °F - 18.0 °F 23% 29.96 in - WSW 13.8 mph 25.3 mph N/A   Unknown
6:52 PM 55.9 °F - 19.0 °F 24% 29.93 in - WSW 17.3 mph 23.0 mph N/A   Unknown
7:52 PM 53.1 °F - 19.9 °F 27% 29.93 in - West 8.1 mph - N/A   Unknown
8:52 PM 51.1 °F - 23.0 °F 33% 29.94 in - SW 3.5 mph - N/A   Unknown
9:52 PM 50.0 °F - 24.1 °F 36% 29.95 in - SE 6.9 mph - N/A   Unknown
10:52 PM 48.9 °F - 25.0 °F 39% 29.93 in - SSE 6.9 mph - N/A   Unknown
11:52 PM 48.9 °F - 26.1 °F 41% 29.91 in - SSE 8.1 mph - N/A   Unknown